Year,Month,Day,Hour,Minute,Value (Times are PST for temperature in C)
2013,07,14,00,00,14.80
2013,07,14,00,01,14.80
2013,07,14,00,02,14.80
2013,07,14,00,03,14.80
2013,07,14,00,04,14.80
2013,07,14,00,05,14.80
2013,07,14,00,06,14.70
2013,07,14,00,07,14.60
2013,07,14,00,08,14.60
2013,07,14,00,09,14.50
2013,07,14,00,10,14.40
2013,07,14,00,11,14.40
2013,07,14,00,12,14.40
2013,07,14,00,13,14.40
2013,07,14,00,14,14.30
2013,07,14,00,15,14.30
2013,07,14,00,16,14.30
2013,07,14,00,17,14.20
2013,07,14,00,18,14.20
2013,07,14,00,19,14.20
2013,07,14,00,20,14.20
2013,07,14,00,21,14.10
2013,07,14,00,22,14.10
2013,07,14,00,23,14.10
2013,07,14,00,24,14.10
2013,07,14,00,25,14.10
2013,07,14,00,26,14.00
2013,07,14,00,27,14.00
2013,07,14,00,28,14.00
2013,07,14,00,29,14.00
2013,07,14,00,30,14.00
2013,07,14,00,31,14.00
2013,07,14,00,32,14.00
2013,07,14,00,33,14.00
2013,07,14,00,34,14.00
2013,07,14,00,35,14.00
2013,07,14,00,36,14.00
2013,07,14,00,37,14.00
2013,07,14,00,38,14.00
2013,07,14,00,39,14.10
2013,07,14,00,40,14.10
2013,07,14,00,41,14.10
2013,07,14,00,42,14.10
2013,07,14,00,43,14.10
2013,07,14,00,44,14.10
2013,07,14,00,45,14.10
2013,07,14,00,46,14.10
2013,07,14,00,47,14.10
2013,07,14,00,48,14.10
2013,07,14,00,49,14.10
2013,07,14,00,50,14.10
2013,07,14,00,51,14.20
2013,07,14,00,52,14.20
2013,07,14,00,53,14.20
2013,07,14,00,54,14.20
2013,07,14,00,55,14.20
2013,07,14,00,56,14.20
2013,07,14,00,57,14.30
2013,07,14,00,58,14.30
2013,07,14,00,59,14.40
2013,07,14,01,00,14.40
2013,07,14,01,01,14.50
2013,07,14,01,02,14.50
2013,07,14,01,03,14.60
2013,07,14,01,04,14.60
2013,07,14,01,05,14.60
2013,07,14,01,06,14.60
2013,07,14,01,07,14.70
2013,07,14,01,08,14.70
2013,07,14,01,09,14.70
2013,07,14,01,10,14.80
2013,07,14,01,11,14.80
2013,07,14,01,12,14.80
2013,07,14,01,13,14.90
2013,07,14,01,14,14.90
2013,07,14,01,15,14.90
2013,07,14,01,16,14.80
2013,07,14,01,17,14.80
2013,07,14,01,18,14.80
2013,07,14,01,19,14.70
2013,07,14,01,20,14.70
2013,07,14,01,21,14.70
2013,07,14,01,22,14.60
2013,07,14,01,23,14.60
2013,07,14,01,24,14.60
2013,07,14,01,25,14.60
2013,07,14,01,26,14.60
2013,07,14,01,27,14.70
2013,07,14,01,28,14.70
2013,07,14,01,29,14.70
2013,07,14,01,30,14.70
2013,07,14,01,31,14.70
2013,07,14,01,32,14.60
2013,07,14,01,33,14.60
2013,07,14,01,34,14.50
2013,07,14,01,35,14.40
2013,07,14,01,36,14.30
2013,07,14,01,37,14.30
2013,07,14,01,38,14.20
2013,07,14,01,39,14.20
2013,07,14,01,40,14.10
2013,07,14,01,41,14.10
2013,07,14,01,42,14.10
2013,07,14,01,43,14.00
2013,07,14,01,44,14.00
2013,07,14,01,45,13.90
2013,07,14,01,46,13.90
2013,07,14,01,47,13.90
2013,07,14,01,48,13.80
2013,07,14,01,49,13.80
2013,07,14,01,50,13.80
2013,07,14,01,51,13.80
2013,07,14,01,52,13.80
2013,07,14,01,53,13.70
2013,07,14,01,54,13.70
2013,07,14,01,55,13.70
2013,07,14,01,56,13.70
2013,07,14,01,57,13.60
2013,07,14,01,58,13.60
2013,07,14,01,59,13.60
2013,07,14,02,00,13.60
2013,07,14,02,01,13.60
2013,07,14,02,02,13.50
2013,07,14,02,03,13.50
2013,07,14,02,04,13.50
2013,07,14,02,05,13.50
2013,07,14,02,06,13.40
2013,07,14,02,07,13.40
2013,07,14,02,08,13.40
2013,07,14,02,09,13.40
2013,07,14,02,10,13.40
2013,07,14,02,11,13.30
2013,07,14,02,12,13.30
2013,07,14,02,13,13.30
2013,07,14,02,14,13.30
2013,07,14,02,15,13.30
2013,07,14,02,16,13.30
2013,07,14,02,17,13.30
2013,07,14,02,18,13.20
2013,07,14,02,19,13.20
2013,07,14,02,20,13.20
2013,07,14,02,21,13.20
2013,07,14,02,22,13.20
2013,07,14,02,23,13.20
2013,07,14,02,24,13.20
2013,07,14,02,25,13.20
2013,07,14,02,26,13.20
2013,07,14,02,27,13.20
2013,07,14,02,28,13.20
2013,07,14,02,29,13.20
2013,07,14,02,30,13.20
2013,07,14,02,31,13.20
2013,07,14,02,32,13.20
2013,07,14,02,33,13.20
2013,07,14,02,34,13.20
2013,07,14,02,35,13.20
2013,07,14,02,36,13.20
2013,07,14,02,37,13.20
2013,07,14,02,38,13.20
2013,07,14,02,39,13.20
2013,07,14,02,40,13.20
2013,07,14,02,41,13.10
2013,07,14,02,42,13.10
2013,07,14,02,43,13.10
2013,07,14,02,44,13.10
2013,07,14,02,45,13.10
2013,07,14,02,46,13.10
2013,07,14,02,47,13.10
2013,07,14,02,48,13.10
2013,07,14,02,49,13.10
2013,07,14,02,50,13.10
2013,07,14,02,51,13.10
2013,07,14,02,52,13.10
2013,07,14,02,53,13.10
2013,07,14,02,54,13.10
2013,07,14,02,55,13.10
2013,07,14,02,56,13.10
2013,07,14,02,57,13.10
2013,07,14,02,58,13.10
2013,07,14,02,59,13.10
2013,07,14,03,00,13.10
2013,07,14,03,01,13.10
2013,07,14,03,02,13.10
2013,07,14,03,03,13.00
2013,07,14,03,04,13.00
2013,07,14,03,05,13.00
2013,07,14,03,06,13.00
2013,07,14,03,07,13.10
2013,07,14,03,08,13.10
2013,07,14,03,09,13.10
2013,07,14,03,10,13.10
2013,07,14,03,11,13.20
2013,07,14,03,12,13.20
2013,07,14,03,13,13.20
2013,07,14,03,14,13.20
2013,07,14,03,15,13.30
2013,07,14,03,16,13.30
2013,07,14,03,17,13.30
2013,07,14,03,18,13.40
2013,07,14,03,19,13.40
2013,07,14,03,20,13.50
2013,07,14,03,21,13.50
2013,07,14,03,22,13.50
2013,07,14,03,23,13.60
2013,07,14,03,24,13.50
2013,07,14,03,25,13.50
2013,07,14,03,26,13.50
2013,07,14,03,27,13.50
2013,07,14,03,28,13.40
2013,07,14,03,29,13.40
2013,07,14,03,30,13.40
2013,07,14,03,31,13.40
2013,07,14,03,32,13.30
2013,07,14,03,33,13.30
2013,07,14,03,34,13.30
2013,07,14,03,35,13.30
2013,07,14,03,36,13.30
2013,07,14,03,37,13.20
2013,07,14,03,38,13.20
2013,07,14,03,39,13.20
2013,07,14,03,40,13.20
2013,07,14,03,41,13.10
2013,07,14,03,42,13.10
2013,07,14,03,43,13.10
2013,07,14,03,44,13.00
2013,07,14,03,45,13.00
2013,07,14,03,46,13.00
2013,07,14,03,47,12.90
2013,07,14,03,48,12.90
2013,07,14,03,49,12.90
2013,07,14,03,50,12.80
2013,07,14,03,51,12.80
2013,07,14,03,52,12.80
2013,07,14,03,53,12.70
2013,07,14,03,54,12.70
2013,07,14,03,55,12.70
2013,07,14,03,56,12.60
2013,07,14,03,57,12.60
2013,07,14,03,58,12.60
2013,07,14,03,59,12.60
2013,07,14,04,00,12.60
2013,07,14,04,01,12.60
2013,07,14,04,02,12.60
2013,07,14,04,03,12.50
2013,07,14,04,04,12.50
2013,07,14,04,05,12.50
2013,07,14,04,06,12.50
2013,07,14,04,07,12.40
2013,07,14,04,08,12.40
2013,07,14,04,09,12.40
2013,07,14,04,10,12.30
2013,07,14,04,11,12.30
2013,07,14,04,12,12.30
2013,07,14,04,13,12.30
2013,07,14,04,14,12.30
2013,07,14,04,15,12.30
2013,07,14,04,16,12.30
2013,07,14,04,17,12.30
2013,07,14,04,18,12.30
2013,07,14,04,19,12.30
2013,07,14,04,20,12.20
2013,07,14,04,21,12.20
2013,07,14,04,22,12.20
2013,07,14,04,23,12.20
2013,07,14,04,24,12.20
2013,07,14,04,25,12.20
2013,07,14,04,26,12.20
2013,07,14,04,27,12.20
2013,07,14,04,28,12.10
2013,07,14,04,29,12.10
2013,07,14,04,30,12.10
2013,07,14,04,31,12.10
2013,07,14,04,32,12.10
2013,07,14,04,33,12.10
2013,07,14,04,34,12.10
2013,07,14,04,35,12.10
2013,07,14,04,36,12.00
2013,07,14,04,37,12.00
2013,07,14,04,38,12.00
2013,07,14,04,39,12.00
2013,07,14,04,40,12.00
2013,07,14,04,41,11.90
2013,07,14,04,42,11.90
2013,07,14,04,43,11.90
2013,07,14,04,44,11.90
2013,07,14,04,45,11.90
2013,07,14,04,46,11.90
2013,07,14,04,47,11.90
2013,07,14,04,48,11.90
2013,07,14,04,49,11.90
2013,07,14,04,50,11.90
2013,07,14,04,51,11.80
2013,07,14,04,52,11.80
2013,07,14,04,53,11.80
2013,07,14,04,54,11.80
2013,07,14,04,55,11.80
2013,07,14,04,56,11.80
2013,07,14,04,57,11.80
2013,07,14,04,58,11.80
2013,07,14,04,59,11.80
2013,07,14,05,00,11.80
2013,07,14,05,01,11.70
2013,07,14,05,02,11.70
2013,07,14,05,03,11.70
2013,07,14,05,04,11.70
2013,07,14,05,05,11.70
2013,07,14,05,06,11.70
2013,07,14,05,07,11.70
2013,07,14,05,08,11.70
2013,07,14,05,09,11.70
2013,07,14,05,10,11.70
2013,07,14,05,11,11.70
2013,07,14,05,12,11.70
2013,07,14,05,13,11.60
2013,07,14,05,14,11.60
2013,07,14,05,15,11.60
2013,07,14,05,16,11.60
2013,07,14,05,17,11.60
2013,07,14,05,18,11.60
2013,07,14,05,19,11.60
2013,07,14,05,20,11.60
2013,07,14,05,21,11.60
2013,07,14,05,22,11.60
2013,07,14,05,23,11.60
2013,07,14,05,24,11.50
2013,07,14,05,25,11.50
2013,07,14,05,26,11.50
2013,07,14,05,27,11.50
2013,07,14,05,28,11.50
2013,07,14,05,29,11.50
2013,07,14,05,30,11.60
2013,07,14,05,31,11.50
2013,07,14,05,32,11.50
2013,07,14,05,33,11.60
2013,07,14,05,34,11.60
2013,07,14,05,35,11.60
2013,07,14,05,36,11.60
2013,07,14,05,37,11.70
2013,07,14,05,38,11.70
2013,07,14,05,39,11.70
2013,07,14,05,40,11.80
2013,07,14,05,41,11.80
2013,07,14,05,42,11.90
2013,07,14,05,43,12.00
2013,07,14,05,44,12.00
2013,07,14,05,45,12.10
2013,07,14,05,46,12.10
2013,07,14,05,47,12.10
2013,07,14,05,48,12.10
2013,07,14,05,49,12.10
2013,07,14,05,50,12.20
2013,07,14,05,51,12.30
2013,07,14,05,52,12.30
2013,07,14,05,53,12.40
2013,07,14,05,54,12.40
2013,07,14,05,55,12.50
2013,07,14,05,56,12.60
2013,07,14,05,57,12.60
2013,07,14,05,58,12.70
2013,07,14,05,59,12.80
2013,07,14,06,00,12.80
2013,07,14,06,01,12.90
2013,07,14,06,02,12.90
2013,07,14,06,03,12.90
2013,07,14,06,04,12.90
2013,07,14,06,05,12.90
2013,07,14,06,06,12.90
2013,07,14,06,07,12.90
2013,07,14,06,08,13.00
2013,07,14,06,09,13.00
2013,07,14,06,10,13.00
2013,07,14,06,11,12.90
2013,07,14,06,12,13.00
2013,07,14,06,13,13.00
2013,07,14,06,14,13.00
2013,07,14,06,15,13.00
2013,07,14,06,16,13.00
2013,07,14,06,17,13.00
2013,07,14,06,18,13.00
2013,07,14,06,19,13.10
2013,07,14,06,20,13.10
2013,07,14,06,21,13.10
2013,07,14,06,22,13.10
2013,07,14,06,23,13.10
2013,07,14,06,24,13.20
2013,07,14,06,25,13.20
2013,07,14,06,26,13.20
2013,07,14,06,27,13.20
2013,07,14,06,28,13.30
2013,07,14,06,29,13.30
2013,07,14,06,30,13.30
2013,07,14,06,31,13.30
2013,07,14,06,32,13.30
2013,07,14,06,33,13.40
2013,07,14,06,34,13.40
2013,07,14,06,35,13.40
2013,07,14,06,36,13.40
2013,07,14,06,37,13.40
2013,07,14,06,38,13.40
2013,07,14,06,39,13.40
2013,07,14,06,40,13.40
2013,07,14,06,41,13.40
2013,07,14,06,42,13.40
2013,07,14,06,43,13.40
2013,07,14,06,44,13.40
2013,07,14,06,45,13.50
2013,07,14,06,46,13.50
2013,07,14,06,47,13.50
2013,07,14,06,48,13.60
2013,07,14,06,49,13.60
2013,07,14,06,50,13.60
2013,07,14,06,51,13.60
2013,07,14,06,52,13.60
2013,07,14,06,53,13.70
2013,07,14,06,54,13.70
2013,07,14,06,55,13.70
2013,07,14,06,56,13.70
2013,07,14,06,57,13.70
2013,07,14,06,58,13.70
2013,07,14,06,59,13.70
2013,07,14,07,00,13.80
2013,07,14,07,01,13.80
2013,07,14,07,02,13.80
2013,07,14,07,03,13.80
2013,07,14,07,04,13.80
2013,07,14,07,05,13.80
2013,07,14,07,06,13.80
2013,07,14,07,07,13.90
2013,07,14,07,08,13.90
2013,07,14,07,09,14.00
2013,07,14,07,10,14.10
2013,07,14,07,11,14.10
2013,07,14,07,12,14.10
2013,07,14,07,13,14.20
2013,07,14,07,14,14.30
2013,07,14,07,15,14.30
2013,07,14,07,16,14.30
2013,07,14,07,17,14.30
2013,07,14,07,18,14.40
2013,07,14,07,19,14.40
2013,07,14,07,20,14.40
2013,07,14,07,21,14.40
2013,07,14,07,22,14.50
2013,07,14,07,23,14.50
2013,07,14,07,24,14.50
2013,07,14,07,25,14.50
2013,07,14,07,26,14.60
2013,07,14,07,27,14.70
2013,07,14,07,28,14.70
2013,07,14,07,29,14.70
2013,07,14,07,30,14.80
2013,07,14,07,31,14.80
2013,07,14,07,32,14.80
2013,07,14,07,33,14.90
2013,07,14,07,34,15.00
2013,07,14,07,35,15.00
2013,07,14,07,36,15.00
2013,07,14,07,37,15.00
2013,07,14,07,38,15.00
2013,07,14,07,39,15.00
2013,07,14,07,40,15.00
2013,07,14,07,41,15.00
2013,07,14,07,42,15.00
2013,07,14,07,43,15.10
2013,07,14,07,44,15.10
2013,07,14,07,45,15.20
2013,07,14,07,46,15.20
2013,07,14,07,47,15.30
2013,07,14,07,48,15.30
2013,07,14,07,49,15.30
2013,07,14,07,50,15.30
2013,07,14,07,51,15.30
2013,07,14,07,52,15.40
2013,07,14,07,53,15.40
2013,07,14,07,54,15.40
2013,07,14,07,55,15.40
2013,07,14,07,56,15.40
2013,07,14,07,57,15.40
2013,07,14,07,58,15.40
2013,07,14,07,59,15.50
2013,07,14,08,00,15.50
2013,07,14,08,01,15.50
2013,07,14,08,02,15.60
2013,07,14,08,03,15.60
2013,07,14,08,04,15.60
2013,07,14,08,05,15.60
2013,07,14,08,06,15.60
2013,07,14,08,07,15.60
2013,07,14,08,08,15.70
2013,07,14,08,09,15.70
2013,07,14,08,10,15.70
2013,07,14,08,11,15.80
2013,07,14,08,12,15.90
2013,07,14,08,13,15.90
2013,07,14,08,14,16.00
2013,07,14,08,15,16.10
2013,07,14,08,16,16.00
2013,07,14,08,17,16.00
2013,07,14,08,18,16.00
2013,07,14,08,19,16.00
2013,07,14,08,20,16.00
2013,07,14,08,21,16.10
2013,07,14,08,22,16.10
2013,07,14,08,23,16.20
2013,07,14,08,24,16.20
2013,07,14,08,25,16.20
2013,07,14,08,26,16.30
2013,07,14,08,27,16.30
2013,07,14,08,28,16.40
2013,07,14,08,29,16.50
2013,07,14,08,30,16.60
2013,07,14,08,31,16.60
2013,07,14,08,32,16.60
2013,07,14,08,33,16.70
2013,07,14,08,34,16.70
2013,07,14,08,35,16.80
2013,07,14,08,36,16.80
2013,07,14,08,37,16.80
2013,07,14,08,38,16.80
2013,07,14,08,39,16.80
2013,07,14,08,40,16.90
2013,07,14,08,41,16.90
2013,07,14,08,42,16.80
2013,07,14,08,43,16.80
2013,07,14,08,44,16.80
2013,07,14,08,45,16.80
2013,07,14,08,46,16.80
2013,07,14,08,47,16.80
2013,07,14,08,48,16.70
2013,07,14,08,49,16.70
2013,07,14,08,50,16.70
2013,07,14,08,51,16.70
2013,07,14,08,52,16.70
2013,07,14,08,53,16.70
2013,07,14,08,54,16.70
2013,07,14,08,55,16.70
2013,07,14,08,56,16.70
2013,07,14,08,57,16.80
2013,07,14,08,58,16.80
2013,07,14,08,59,16.80
2013,07,14,09,00,16.80
2013,07,14,09,01,16.90
2013,07,14,09,02,16.90
2013,07,14,09,03,16.90
2013,07,14,09,04,16.90
2013,07,14,09,05,17.00
2013,07,14,09,06,17.00
2013,07,14,09,07,17.00
2013,07,14,09,08,17.00
2013,07,14,09,09,17.00
2013,07,14,09,10,17.00
2013,07,14,09,11,16.90
2013,07,14,09,12,16.90
2013,07,14,09,13,16.90
2013,07,14,09,14,16.90
2013,07,14,09,15,16.90
2013,07,14,09,16,16.90
2013,07,14,09,17,16.90
2013,07,14,09,18,16.90
2013,07,14,09,19,16.90
2013,07,14,09,20,16.90
2013,07,14,09,21,16.90
2013,07,14,09,22,16.90
2013,07,14,09,23,16.90
2013,07,14,09,24,16.90
2013,07,14,09,25,16.90
2013,07,14,09,26,17.00
2013,07,14,09,27,17.10
2013,07,14,09,28,17.20
2013,07,14,09,29,17.30
2013,07,14,09,30,17.30
2013,07,14,09,31,17.40
2013,07,14,09,32,17.50
2013,07,14,09,33,17.50
2013,07,14,09,34,17.50
2013,07,14,09,35,17.60
2013,07,14,09,36,17.60
2013,07,14,09,37,17.60
2013,07,14,09,38,17.60
2013,07,14,09,39,17.60
2013,07,14,09,40,17.60
2013,07,14,09,41,17.60
2013,07,14,09,42,17.70
2013,07,14,09,43,17.70
2013,07,14,09,44,17.70
2013,07,14,09,45,17.70
2013,07,14,09,46,17.70
2013,07,14,09,47,17.70
2013,07,14,09,48,17.70
2013,07,14,09,49,17.70
2013,07,14,09,50,17.60
2013,07,14,09,51,17.60
2013,07,14,09,52,17.50
2013,07,14,09,53,17.50
2013,07,14,09,54,17.50
2013,07,14,09,55,17.50
2013,07,14,09,56,17.50
2013,07,14,09,57,17.50
2013,07,14,09,58,17.50
2013,07,14,09,59,17.60
2013,07,14,10,00,17.60
2013,07,14,10,01,17.60
2013,07,14,10,02,17.50
2013,07,14,10,03,17.60
2013,07,14,10,04,17.60
2013,07,14,10,05,17.50
2013,07,14,10,06,17.50
2013,07,14,10,07,17.40
2013,07,14,10,08,17.30
2013,07,14,10,09,17.30
2013,07,14,10,10,17.20
2013,07,14,10,11,17.10
2013,07,14,10,12,17.10
2013,07,14,10,13,17.20
2013,07,14,10,14,17.20
2013,07,14,10,15,17.30
2013,07,14,10,16,17.30
2013,07,14,10,17,17.40
2013,07,14,10,18,17.50
2013,07,14,10,19,17.60
2013,07,14,10,20,17.60
2013,07,14,10,21,17.50
2013,07,14,10,22,17.50
2013,07,14,10,23,17.50
2013,07,14,10,24,17.50
2013,07,14,10,25,17.50
2013,07,14,10,26,17.40
2013,07,14,10,27,17.40
2013,07,14,10,28,17.50
2013,07,14,10,29,17.40
2013,07,14,10,30,17.40
2013,07,14,10,31,17.20
2013,07,14,10,32,17.10
2013,07,14,10,33,17.00
2013,07,14,10,34,17.00
2013,07,14,10,35,17.00
2013,07,14,10,36,17.10
2013,07,14,10,37,17.10
2013,07,14,10,38,17.10
2013,07,14,10,39,17.10
2013,07,14,10,40,17.10
2013,07,14,10,41,17.00
2013,07,14,10,42,17.00
2013,07,14,10,43,16.90
2013,07,14,10,44,16.90
2013,07,14,10,45,16.90
2013,07,14,10,46,17.00
2013,07,14,10,47,17.00
2013,07,14,10,48,17.10
2013,07,14,10,49,17.20
2013,07,14,10,50,17.30
2013,07,14,10,51,17.30
2013,07,14,10,52,17.30
2013,07,14,10,53,17.30
2013,07,14,10,54,17.40
2013,07,14,10,55,17.40
2013,07,14,10,56,17.40
2013,07,14,10,57,17.40
2013,07,14,10,58,17.40
2013,07,14,10,59,17.40
2013,07,14,11,00,17.50
2013,07,14,11,01,17.50
2013,07,14,11,02,17.60
2013,07,14,11,03,17.70
2013,07,14,11,04,17.80
2013,07,14,11,05,17.90
2013,07,14,11,06,18.00
2013,07,14,11,07,18.00
2013,07,14,11,08,17.90
2013,07,14,11,09,18.00
2013,07,14,11,10,18.00
2013,07,14,11,11,18.00
2013,07,14,11,12,18.00
2013,07,14,11,13,18.00
2013,07,14,11,14,18.00
2013,07,14,11,15,18.00
2013,07,14,11,16,17.90
2013,07,14,11,17,18.00
2013,07,14,11,18,18.00
2013,07,14,11,19,18.10
2013,07,14,11,20,18.00
2013,07,14,11,21,17.90
2013,07,14,11,22,17.80
2013,07,14,11,23,17.70
2013,07,14,11,24,17.70
2013,07,14,11,25,17.80
2013,07,14,11,26,17.80
2013,07,14,11,27,17.80
2013,07,14,11,28,17.80
2013,07,14,11,29,17.80
2013,07,14,11,30,17.80
2013,07,14,11,31,17.90
2013,07,14,11,32,17.90
2013,07,14,11,33,18.00
2013,07,14,11,34,18.10
2013,07,14,11,35,18.10
2013,07,14,11,36,18.10
2013,07,14,11,37,18.10
2013,07,14,11,38,18.10
2013,07,14,11,39,18.20
2013,07,14,11,40,18.30
2013,07,14,11,41,18.30
2013,07,14,11,42,18.40
2013,07,14,11,43,18.40
2013,07,14,11,44,18.40
2013,07,14,11,45,18.40
2013,07,14,11,46,18.40
2013,07,14,11,47,18.40
2013,07,14,11,48,18.40
2013,07,14,11,49,18.40
2013,07,14,11,50,18.40
2013,07,14,11,51,18.50
2013,07,14,11,52,18.50
2013,07,14,11,53,18.60
2013,07,14,11,54,18.50
2013,07,14,11,55,18.40
2013,07,14,11,56,18.40
2013,07,14,11,57,18.50
2013,07,14,11,58,18.50
2013,07,14,11,59,18.50
2013,07,14,12,00,18.60
2013,07,14,12,01,18.60
2013,07,14,12,02,18.70
2013,07,14,12,03,18.70
2013,07,14,12,04,18.80
2013,07,14,12,05,18.70
2013,07,14,12,06,18.70
2013,07,14,12,07,18.70
2013,07,14,12,08,18.70
2013,07,14,12,09,18.80
2013,07,14,12,10,18.80
2013,07,14,12,11,18.90
2013,07,14,12,12,18.90
2013,07,14,12,13,18.80
2013,07,14,12,14,18.90
2013,07,14,12,15,18.90
2013,07,14,12,16,18.90
2013,07,14,12,17,18.90
2013,07,14,12,18,18.80
2013,07,14,12,19,18.80
2013,07,14,12,20,18.70
2013,07,14,12,21,18.60
2013,07,14,12,22,18.70
2013,07,14,12,23,18.70
2013,07,14,12,24,18.70
2013,07,14,12,25,18.70
2013,07,14,12,26,18.70
2013,07,14,12,27,18.80
2013,07,14,12,28,18.80
2013,07,14,12,29,18.80
2013,07,14,12,30,18.90
2013,07,14,12,31,18.90
2013,07,14,12,32,18.90
2013,07,14,12,33,19.00
2013,07,14,12,34,18.90
2013,07,14,12,35,18.90
2013,07,14,12,36,18.90
2013,07,14,12,37,18.90
2013,07,14,12,38,18.80
2013,07,14,12,39,18.80
2013,07,14,12,40,18.90
2013,07,14,12,41,18.90
2013,07,14,12,42,18.90
2013,07,14,12,43,18.90
2013,07,14,12,44,19.00
2013,07,14,12,45,19.00
2013,07,14,12,46,19.00
2013,07,14,12,47,19.10
2013,07,14,12,48,19.10
2013,07,14,12,49,19.10
2013,07,14,12,50,19.00
2013,07,14,12,51,18.90
2013,07,14,12,52,18.90
2013,07,14,12,53,18.90
2013,07,14,12,54,18.90
2013,07,14,12,55,19.00
2013,07,14,12,56,19.10
2013,07,14,12,57,19.10
2013,07,14,12,58,19.20
2013,07,14,12,59,19.30
2013,07,14,13,00,19.40
2013,07,14,13,01,19.50
2013,07,14,13,02,19.60
2013,07,14,13,03,19.60
2013,07,14,13,04,19.60
2013,07,14,13,05,19.60
2013,07,14,13,06,19.60
2013,07,14,13,07,19.70
2013,07,14,13,08,19.70
2013,07,14,13,09,19.60
2013,07,14,13,10,19.40
2013,07,14,13,11,19.30
2013,07,14,13,12,19.20
2013,07,14,13,13,19.20
2013,07,14,13,14,19.30
2013,07,14,13,15,19.30
2013,07,14,13,16,19.40
2013,07,14,13,17,19.50
2013,07,14,13,18,19.60
2013,07,14,13,19,19.70
2013,07,14,13,20,19.60
2013,07,14,13,21,19.60
2013,07,14,13,22,19.70
2013,07,14,13,23,19.90
2013,07,14,13,24,20.00
2013,07,14,13,25,20.10
2013,07,14,13,26,20.10
2013,07,14,13,27,20.10
2013,07,14,13,28,20.10
2013,07,14,13,29,20.10
2013,07,14,13,30,20.10
2013,07,14,13,31,20.10
2013,07,14,13,32,20.20
2013,07,14,13,33,20.20
2013,07,14,13,34,20.30
2013,07,14,13,35,20.40
2013,07,14,13,36,20.30
2013,07,14,13,37,20.40
2013,07,14,13,38,20.40
2013,07,14,13,39,20.40
2013,07,14,13,40,20.50
2013,07,14,13,41,20.50
2013,07,14,13,42,20.50
2013,07,14,13,43,20.40
2013,07,14,13,44,20.40
2013,07,14,13,45,20.50
2013,07,14,13,46,20.60
2013,07,14,13,47,20.70
2013,07,14,13,48,20.80
2013,07,14,13,49,20.90
2013,07,14,13,50,20.90
2013,07,14,13,51,20.80
2013,07,14,13,52,20.70
2013,07,14,13,53,20.60
2013,07,14,13,54,20.60
2013,07,14,13,55,20.60
2013,07,14,13,56,20.50
2013,07,14,13,57,20.50
2013,07,14,13,58,20.60
2013,07,14,13,59,20.50
2013,07,14,14,00,20.40
2013,07,14,14,01,20.30
2013,07,14,14,02,20.20
2013,07,14,14,03,20.00
2013,07,14,14,04,19.90
2013,07,14,14,05,19.80
2013,07,14,14,06,19.90
2013,07,14,14,07,19.90
2013,07,14,14,08,19.90
2013,07,14,14,09,19.80
2013,07,14,14,10,19.80
2013,07,14,14,11,19.80
2013,07,14,14,12,19.70
2013,07,14,14,13,19.60
2013,07,14,14,14,19.60
2013,07,14,14,15,19.60
2013,07,14,14,16,19.60
2013,07,14,14,17,19.50
2013,07,14,14,18,19.50
2013,07,14,14,19,19.50
2013,07,14,14,20,19.60
2013,07,14,14,21,19.60
2013,07,14,14,22,19.60
2013,07,14,14,23,19.60
2013,07,14,14,24,19.60
2013,07,14,14,25,19.60
2013,07,14,14,26,19.60
2013,07,14,14,27,19.50
2013,07,14,14,28,19.40
2013,07,14,14,29,19.30
2013,07,14,14,30,19.20
2013,07,14,14,31,19.10
2013,07,14,14,32,19.00
2013,07,14,14,33,18.90
2013,07,14,14,34,18.90
2013,07,14,14,35,18.80
2013,07,14,14,36,18.90
2013,07,14,14,37,18.90
2013,07,14,14,38,19.00
2013,07,14,14,39,19.10
2013,07,14,14,40,19.20
2013,07,14,14,41,19.30
2013,07,14,14,42,19.40
2013,07,14,14,43,19.50
2013,07,14,14,44,19.60
2013,07,14,14,45,19.60
2013,07,14,14,46,19.70
2013,07,14,14,47,19.70
2013,07,14,14,48,19.70
2013,07,14,14,49,19.70
2013,07,14,14,50,19.80
2013,07,14,14,51,19.90
2013,07,14,14,52,19.90
2013,07,14,14,53,20.00
2013,07,14,14,54,20.00
2013,07,14,14,55,20.10
2013,07,14,14,56,20.10
2013,07,14,14,57,20.10
2013,07,14,14,58,20.10
2013,07,14,14,59,20.10
2013,07,14,15,00,20.10
2013,07,14,15,01,20.10
2013,07,14,15,02,20.10
2013,07,14,15,03,20.00
2013,07,14,15,04,20.00
2013,07,14,15,05,20.00
2013,07,14,15,06,20.10
2013,07,14,15,07,20.10
2013,07,14,15,08,20.10
2013,07,14,15,09,20.10
2013,07,14,15,10,20.00
2013,07,14,15,11,20.00
2013,07,14,15,12,20.10
2013,07,14,15,13,20.10
2013,07,14,15,14,20.10
2013,07,14,15,15,20.10
2013,07,14,15,16,20.00
2013,07,14,15,17,19.90
2013,07,14,15,18,19.80
2013,07,14,15,19,19.80
2013,07,14,15,20,19.80
2013,07,14,15,21,19.80
2013,07,14,15,22,19.80
2013,07,14,15,23,19.90
2013,07,14,15,24,19.90
2013,07,14,15,25,19.90
2013,07,14,15,26,20.00
2013,07,14,15,27,20.00
2013,07,14,15,28,20.10
2013,07,14,15,29,20.20
2013,07,14,15,30,20.20
2013,07,14,15,31,20.20
2013,07,14,15,32,20.30
2013,07,14,15,33,20.20
2013,07,14,15,34,20.20
2013,07,14,15,35,20.10
2013,07,14,15,36,20.00
2013,07,14,15,37,20.00
2013,07,14,15,38,20.00
2013,07,14,15,39,20.00
2013,07,14,15,40,20.00
2013,07,14,15,41,20.10
2013,07,14,15,42,20.00
2013,07,14,15,43,20.10
2013,07,14,15,44,20.10
2013,07,14,15,45,20.10
2013,07,14,15,46,20.10
2013,07,14,15,47,20.10
2013,07,14,15,48,20.10
2013,07,14,15,49,20.20
2013,07,14,15,50,20.20
2013,07,14,15,51,20.30
2013,07,14,15,52,20.30
2013,07,14,15,53,20.30
2013,07,14,15,54,20.30
2013,07,14,15,55,20.30
2013,07,14,15,56,20.30
2013,07,14,15,57,20.30
2013,07,14,15,58,20.30
2013,07,14,15,59,20.30
2013,07,14,16,00,20.40
2013,07,14,16,01,20.40
2013,07,14,16,02,20.30
2013,07,14,16,03,20.30
2013,07,14,16,04,20.30
2013,07,14,16,05,20.30
2013,07,14,16,06,20.40
2013,07,14,16,07,20.40
2013,07,14,16,08,20.50
2013,07,14,16,09,20.60
2013,07,14,16,10,20.70
2013,07,14,16,11,20.70
2013,07,14,16,12,20.60
2013,07,14,16,13,20.70
2013,07,14,16,14,20.70
2013,07,14,16,15,20.70
2013,07,14,16,16,20.70
2013,07,14,16,17,20.70
2013,07,14,16,18,20.70
2013,07,14,16,19,20.60
2013,07,14,16,20,20.60
2013,07,14,16,21,20.60
2013,07,14,16,22,20.60
2013,07,14,16,23,20.70
2013,07,14,16,24,20.70
2013,07,14,16,25,20.70
2013,07,14,16,26,20.70
2013,07,14,16,27,20.80
2013,07,14,16,28,20.80
2013,07,14,16,29,20.80
2013,07,14,16,30,20.80
2013,07,14,16,31,20.70
2013,07,14,16,32,20.70
2013,07,14,16,33,20.80
2013,07,14,16,34,20.70
2013,07,14,16,35,20.70
2013,07,14,16,36,20.80
2013,07,14,16,37,20.80
2013,07,14,16,38,20.90
2013,07,14,16,39,20.90
2013,07,14,16,40,21.00
2013,07,14,16,41,21.00
2013,07,14,16,42,21.10
2013,07,14,16,43,21.10
2013,07,14,16,44,21.10
2013,07,14,16,45,21.10
2013,07,14,16,46,21.10
2013,07,14,16,47,21.10
2013,07,14,16,48,21.10
2013,07,14,16,49,21.10
2013,07,14,16,50,21.10
2013,07,14,16,51,21.10
2013,07,14,16,52,21.10
2013,07,14,16,53,21.20
2013,07,14,16,54,21.20
2013,07,14,16,55,21.30
2013,07,14,16,56,21.30
2013,07,14,16,57,21.30
2013,07,14,16,58,21.30
2013,07,14,16,59,21.30
2013,07,14,17,00,21.30
2013,07,14,17,01,21.30
2013,07,14,17,02,21.40
2013,07,14,17,03,21.40
2013,07,14,17,04,21.40
2013,07,14,17,05,21.50
2013,07,14,17,06,21.50
2013,07,14,17,07,21.60
2013,07,14,17,08,21.70
2013,07,14,17,09,21.80
2013,07,14,17,10,21.80
2013,07,14,17,11,21.80
2013,07,14,17,12,21.80
2013,07,14,17,13,21.80
2013,07,14,17,14,21.80
2013,07,14,17,15,21.80
2013,07,14,17,16,21.80
2013,07,14,17,17,21.90
2013,07,14,17,18,21.90
2013,07,14,17,19,21.90